Weather History for Savanna, IL

Change the Weather History Date:

Sunday, March 17, 2013

  Actual Average (KCWI) Record (KCWI)
Temperature  
Mean Temperature 28 °F -  
Max Temperature 34 °F 46 °F 82 °F (2012)
Min Temperature 23 °F 27 °F 9 °F (1959)
Degree Days  
Heating Degree Days 36    
Moisture  
Dew Point 21 °F    
Average Humidity 69    
Maximum Humidity 83    
Minimum Humidity 59    
Precipitation  
Precipitation 0.00 in - - ()
Sea Level Pressure  
Sea Level Pressure 30.12 in    
Wind  
Wind Speed 10 mph (ENE)    
Max Wind Speed 17 mph    
Max Gust Speed 21 mph    
Visibility 10 miles    
Events      
Averages and records for this station are not official NWS values.
T = Trace of Precipitation, MM = Missing Value Source: NWS Daily Summary

Daily Weather History Graph

Daily Weather History Graph

Search for Another Location

Airport:

Trip Planner

Search our weather history database for the weather conditions in past years. The results will help you decide how hot, cold, wet, or windy it might be!

Date:

Astronomy

Mar. 17, 2013 Rise Set
Actual Time 7:08 AM CDT 7:09 PM CDT
Civil Twilight 6:40 AM CDT 7:37 PM CDT
Nautical Twilight 6:08 AM CDT 8:10 PM CDT
Astronomical Twilight 5:35 AM CDT 8:43 PM CDT
Moon 10:15 AM CDT (3/17) 12:22 AM CDT (3/17)
Length of Visible Light 12h 56m
Length of Day
12h 01m
Waxing Crescent, 31% of the Moon is Illuminated
Mar 17
Waxing Crescent
Mar 19
First Quarter
Mar 27
Full
Apr 2
Last Quarter
Apr 10
New

Hourly Weather History & Observations

Time (CDT) Temp. Windchill Dew Point Humidity Pressure Visibility Wind Dir Wind Speed Gust Speed Precip Events Conditions
12:15 AM 31.1 °F 23.1 °F 21.9 °F 69% 30.16 in 10.0 mi NNW 9.2 mph - N/A   Overcast
12:35 AM 30.7 °F 22.0 °F 21.4 °F 68% 30.15 in 10.0 mi North 10.4 mph - N/A   Overcast
12:55 AM 30.0 °F 22.4 °F 21.2 °F 70% 30.15 in 10.0 mi NNW 8.1 mph - N/A   Overcast
1:15 AM 29.7 °F 22.0 °F 20.1 °F 68% 30.16 in 10.0 mi North 8.1 mph - N/A   Scattered Clouds
1:35 AM 28.9 °F 21.1 °F 19.9 °F 69% 30.16 in 10.0 mi NNW 8.1 mph - N/A   Clear
1:55 AM 28.8 °F 20.9 °F 19.9 °F 70% 30.16 in 10.0 mi North 8.1 mph - N/A   Clear
2:15 AM 28.4 °F 20.4 °F 19.9 °F 71% 30.16 in 10.0 mi NNW 8.1 mph - N/A   Clear
2:35 AM 28.2 °F 19.5 °F 20.1 °F 72% 30.16 in 10.0 mi North 9.2 mph - N/A   Clear
2:55 AM 27.9 °F 20.6 °F 20.1 °F 73% 30.15 in 10.0 mi North 6.9 mph - N/A   Clear
3:15 AM 27.5 °F 18.6 °F 19.9 °F 73% 30.15 in 10.0 mi North 9.2 mph - N/A   Clear
3:35 AM 27.5 °F 18.6 °F 19.2 °F 71% 30.13 in 10.0 mi North 9.2 mph - N/A   Clear
3:55 AM 27.1 °F 17.5 °F 18.9 °F 71% 30.13 in 10.0 mi North 10.4 mph - N/A   Clear
4:15 AM 26.6 °F 16.8 °F 18.7 °F 72% 30.14 in 10.0 mi North 10.4 mph - N/A   Clear
4:35 AM 26.4 °F 18.0 °F 18.7 °F 73% 30.14 in 10.0 mi North 8.1 mph - N/A   Clear
4:55 AM 26.6 °F 15.2 °F 17.6 °F 69% 30.15 in 10.0 mi North 13.8 mph 18.4 mph N/A   Clear
5:15 AM 26.4 °F 16.0 °F 18.0 °F 70% 30.15 in 10.0 mi NNE 11.5 mph - N/A   Clear
5:35 AM 25.9 °F 16.0 °F 15.3 °F 64% 30.16 in 10.0 mi NNE 10.4 mph - N/A   Clear
5:55 AM 25.3 °F 15.3 °F 12.9 °F 59% 30.19 in 10.0 mi NNE 10.4 mph - N/A   Clear
6:15 AM 24.8 °F 16.1 °F 13.8 °F 63% 30.19 in 10.0 mi NE 8.1 mph - N/A   Clear
6:35 AM 24.4 °F 15.6 °F 14.2 °F 65% 30.19 in 10.0 mi NNE 8.1 mph - N/A   Clear
6:55 AM 24.4 °F 13.5 °F 14.9 °F 67% 30.19 in 10.0 mi NE 11.5 mph - N/A   Clear
7:15 AM 23.9 °F 12.3 °F 14.0 °F 66% 30.19 in 10.0 mi NE 12.7 mph - N/A   Clear
7:35 AM 24.4 °F 14.2 °F 14.2 °F 65% 30.19 in 10.0 mi NE 10.4 mph - N/A   Clear
7:55 AM 24.4 °F 14.9 °F 14.5 °F 66% 30.20 in 10.0 mi NE 9.2 mph - N/A   Clear
8:15 AM 25.0 °F 13.6 °F 14.5 °F 65% 30.20 in 10.0 mi NE 12.7 mph - N/A   Clear
8:35 AM 25.3 °F 14.7 °F 15.1 °F 65% 30.21 in 10.0 mi ENE 11.5 mph - N/A   Clear
8:55 AM 26.2 °F 16.4 °F 15.3 °F 63% 30.21 in 10.0 mi NE 10.4 mph 18.4 mph N/A   Clear
9:15 AM 26.6 °F 15.7 °F 15.4 °F 63% 30.21 in 10.0 mi NE 12.7 mph 17.3 mph N/A   Clear
9:35 AM 28.0 °F 17.5 °F 16.3 °F 62% 30.21 in 10.0 mi ENE 12.7 mph 17.3 mph N/A   Clear
9:55 AM 28.4 °F 18.0 °F 16.7 °F 62% 30.22 in 10.0 mi ENE 12.7 mph - N/A   Clear
10:15 AM 29.8 °F 19.8 °F 17.2 °F 59% 30.21 in 10.0 mi ENE 12.7 mph 18.4 mph N/A   Clear
10:35 AM 30.0 °F 19.5 °F 17.6 °F 60% 30.21 in 10.0 mi ENE 13.8 mph 19.6 mph N/A   Clear
10:55 AM 30.7 °F 20.4 °F 18.9 °F 61% 30.20 in 10.0 mi East 13.8 mph - N/A   Clear
11:15 AM 32.0 °F 23.6 °F 19.0 °F 59% 30.20 in 10.0 mi East 10.4 mph - N/A   Clear
11:35 AM 32.0 °F 22.5 °F 19.9 °F 61% 30.20 in 10.0 mi East 12.7 mph 18.4 mph N/A   Clear
11:55 AM 33.4 °F 24.3 °F 21.0 °F 60% 30.19 in 10.0 mi East 12.7 mph - N/A   Scattered Clouds
12:15 PM 33.4 °F 25.4 °F 21.2 °F 61% 30.18 in 10.0 mi East 10.4 mph 17.3 mph N/A   Scattered Clouds
12:35 PM 32.7 °F 22.5 °F 21.7 °F 64% 30.17 in 10.0 mi East 15.0 mph - N/A   Overcast
12:55 PM 33.4 °F 23.9 °F 22.3 °F 64% 30.16 in 10.0 mi East 13.8 mph - N/A   Overcast
1:15 PM 33.8 °F 24.3 °F 22.6 °F 64% 30.14 in 10.0 mi East 13.8 mph 18.4 mph N/A   Overcast
1:35 PM 33.4 °F 23.5 °F 22.6 °F 65% 30.14 in 10.0 mi ENE 15.0 mph 19.6 mph N/A   Overcast
1:55 PM 32.9 °F 24.1 °F 23.0 °F 67% 30.13 in 10.0 mi East 11.5 mph - N/A   Overcast
2:15 PM 33.1 °F 23.4 °F 23.0 °F 66% 30.12 in 10.0 mi East 13.8 mph 18.4 mph N/A   Overcast
2:35 PM 33.1 °F 25.5 °F 23.0 °F 66% 30.13 in 10.0 mi East 9.2 mph - N/A   Overcast
2:55 PM 33.1 °F 23.9 °F 23.0 °F 66% 30.11 in 10.0 mi East 12.7 mph - N/A   Overcast
3:15 PM 33.8 °F 26.4 °F 23.7 °F 67% 30.10 in 10.0 mi East 9.2 mph - N/A   Overcast
3:35 PM 34.2 °F 25.2 °F 23.5 °F 65% 30.09 in 10.0 mi East 12.7 mph 17.3 mph N/A   Overcast
3:55 PM 34.2 °F 24.8 °F 23.4 °F 65% 30.08 in 10.0 mi East 13.8 mph 18.4 mph N/A   Overcast
4:15 PM 34.2 °F 25.2 °F 23.9 °F 66% 30.07 in 10.0 mi East 12.7 mph - N/A   Overcast
4:35 PM 34.2 °F 24.8 °F 24.1 °F 67% 30.06 in 10.0 mi East 13.8 mph 17.3 mph N/A   Overcast
4:55 PM 34.7 °F 24.3 °F 23.7 °F 64% 30.07 in 10.0 mi ESE 17.3 mph 20.7 mph N/A   Overcast
5:15 PM 34.2 °F 26.8 °F 24.4 °F 68% 30.05 in 10.0 mi East 9.2 mph - N/A   Overcast
5:35 PM 34.2 °F 25.2 °F 24.4 °F 68% 30.05 in 10.0 mi East 12.7 mph - N/A   Overcast
5:55 PM 33.8 °F 23.9 °F 23.7 °F 67% 30.05 in 10.0 mi East 15.0 mph - N/A   Overcast
6:15 PM 33.4 °F 24.8 °F 23.9 °F 68% 30.04 in 10.0 mi East 11.5 mph - N/A   Scattered Clouds
6:35 PM 32.9 °F 25.3 °F 25.2 °F 73% 30.03 in 10.0 mi East 9.2 mph - N/A   Clear
6:55 PM 32.4 °F 24.0 °F 25.3 °F 75% 30.02 in 10.0 mi East 10.4 mph - N/A   Scattered Clouds
7:15 PM 32.0 °F 23.0 °F 25.2 °F 76% 30.03 in 10.0 mi ENE 11.5 mph - N/A   Clear
7:35 PM 32.0 °F 22.5 °F 24.8 °F 75% 30.02 in 10.0 mi East 12.7 mph 19.6 mph N/A   Clear
7:55 PM 32.0 °F 23.6 °F 24.8 °F 75% 30.02 in 10.0 mi ENE 10.4 mph - N/A   Scattered Clouds
8:15 PM 31.8 °F 22.8 °F 25.2 °F 76% 30.01 in 10.0 mi East 11.5 mph 17.3 mph N/A   Scattered Clouds
8:35 PM 32.0 °F 23.6 °F 25.2 °F 76% 30.01 in 10.0 mi East 10.4 mph - N/A   Overcast
8:55 PM 31.8 °F 22.8 °F 25.2 °F 76% 30.01 in 10.0 mi East 11.5 mph 18.4 mph N/A   Scattered Clouds
9:15 PM 31.8 °F 22.8 °F 25.3 °F 77% 30.00 in 10.0 mi East 11.5 mph - N/A   Mostly Cloudy
9:35 PM 32.0 °F 23.6 °F 26.1 °F 79% 30.00 in 10.0 mi East 10.4 mph - N/A   Overcast
9:55 PM 32.0 °F 24.2 °F 26.2 °F 79% 29.99 in 10.0 mi East 9.2 mph - N/A   Mostly Cloudy
10:15 PM 31.8 °F 23.3 °F 26.2 °F 80% 29.99 in 10.0 mi East 10.4 mph - N/A   Scattered Clouds
10:35 PM 32.0 °F 24.2 °F 26.2 °F 79% 29.98 in 10.0 mi East 9.2 mph - N/A   Clear
10:55 PM 31.1 °F 23.1 °F 26.4 °F 83% 29.98 in 10.0 mi East 9.2 mph - N/A   Clear
11:15 PM 30.9 °F 23.5 °F 26.2 °F 83% 29.97 in 10.0 mi East 8.1 mph - N/A   Clear
11:35 PM 30.7 °F 22.6 °F 26.1 °F 83% 29.96 in 10.0 mi East 9.2 mph - N/A   Clear
11:55 PM 30.4 °F 23.6 °F 25.5 °F 82% 29.95 in 10.0 mi ENE 6.9 mph - N/A   Clear